Location: Newark
(43.0000°N, 1.6781°W)
Time: 02:20:01
(UTC+00:00)

X-37B - Pass Details

Date: 12 December 2021
Orbit: 334 x 337 km, 45.0° (Epoch: 11 January)

Event Time Altitude Azimuth Distance (km) Brightness Sun altitude
Rises 18:53:09 0° 282° (WNW) 2,105 5.4 -24.9°
Reaches altitude 10° 18:55:10 10° 286° (WNW) 1,267 4.0 -25.2°
Enters shadow 18:55:50 16° 289° (WNW) 1,001 3.4 -25.4°
